Location: Ahausen
(50.4985°N, 8.2722°E)
Time: 07:24:04
(UTC+00:00)

Cosmos 1125 Rocket - Pass Details

Date: 18 September 2020
Orbit: 757 x 780 km, 74.0° (Epoch: 22 October)

Event Time Altitude Azimuth Distance (km) Brightness Sun altitude
Rises 18:57:55 0° 170° (S) 3,245 6.5 -14.0°
Reaches altitude 10° 19:00:32 10° 160° (SSE) 2,325 5.6 -14.4°
Maximum altitude 19:05:04 30° 101° (E) 1,380 4.3 -15.1°
Drops below altitude 10° 19:09:38 10° 42° (NE) 2,344 5.8 -15.7°
Sets 19:12:16 0° 32° (NNE) 3,276 6.7 -16.1°
